Boscobel, WI

3:24 AM CST on November 18, 2017 (GMT -0600)
Boscobel

Weather History for KOVS - January, 2013

Change the Weather History Date:

Sunday, January 13, 2013

  Actual Average (KPDC) Record (KPDC)
Temperature  
Mean Temperature 14 °F -  
Max Temperature 19 °F 28 °F 49 °F (1987)
Min Temperature 10 °F 10 °F -15 °F (1963)
Degree Days  
Heating Degree Days 50    
Moisture  
Dew Point 4 °F    
Average Humidity 65    
Maximum Humidity 71    
Minimum Humidity 58    
Precipitation  
Precipitation 0.00 in - - ()
Sea Level Pressure  
Sea Level Pressure 30.12 in    
Wind  
Wind Speed 8 mph (WNW)    
Max Wind Speed 14 mph    
Max Gust Speed 20 mph    
Visibility 10 miles    
Events      
Averages and records for this station are not official NWS values.
T = Trace of Precipitation, MM = Missing Value Source: NWS Daily Summary

Daily Weather History Graph

Daily Weather History Graph

Search for Another Location

Airport or City:

Trip Planner

Search our weather history database for the weather conditions in past years. The results will help you decide how hot, cold, wet, or windy it might be!

Date:

Astronomy

Jan. 13, 2013 Rise Set
Actual Time 7:32 AM CST 4:50 PM CST
Civil Twilight 7:00 AM CST 5:22 PM CST
Nautical Twilight 6:25 AM CST 5:57 PM CST
Astronomical Twilight 5:51 AM CST 6:32 PM CST
Moon 8:26 AM CST (1/13) 7:35 PM CST (1/13)
Length of Visible Light 10h 21m
Length of Day
9h 18m
Waxing Crescent, 5% of the Moon is Illuminated
Jan 13
Waxing Crescent
Jan 18
First Quarter
Jan 26
Full
Feb 3
Last Quarter
Feb 10
New

Hourly Weather History & Observations

Time (CST) Temp. Windchill Dew Point Humidity Pressure Visibility Wind Dir Wind Speed Gust Speed Precip Events Conditions
12:53 AM 19.0 °F 8.2 °F 10.0 °F 68% 30.03 in 10.0 mi NNW 9.2 mph - N/A   Overcast
1:20 AM 17.6 °F 6.4 °F 8.6 °F 68% 29.97 in 10.0 mi NNW 9.2 mph - N/A   Scattered Clouds
1:53 AM 17.1 °F 10.0 °F 8.1 °F 68% 30.03 in 10.0 mi NW 4.6 mph - N/A   Partly Cloudy
2:53 AM 16.0 °F 7.4 °F 6.1 °F 65% 30.05 in 10.0 mi NW 5.8 mph - N/A   Clear
3:53 AM 15.1 °F 6.4 °F 6.1 °F 68% 30.03 in 10.0 mi NNW 5.8 mph - N/A   Clear
4:53 AM 14.0 °F 6.5 °F 6.1 °F 71% 30.06 in 10.0 mi West 4.6 mph - N/A   Partly Cloudy
5:30 AM 14.0 °F 3.9 °F 5.0 °F 67% 30.03 in 10.0 mi WNW 6.9 mph - N/A   Mostly Cloudy
5:53 AM 12.9 °F 2.6 °F 5.0 °F 71% 30.08 in 10.0 mi WNW 6.9 mph - N/A   Overcast
6:26 AM 12.2 °F 2.9 °F 3.2 °F 67% 30.06 in 10.0 mi NW 5.8 mph - N/A   Scattered Clouds
6:33 AM 12.2 °F 2.9 °F 3.2 °F 67% 30.05 in 10.0 mi WNW 5.8 mph - N/A   Mostly Cloudy
6:53 AM 12.0 °F 1.5 °F 3.9 °F 70% 30.12 in 10.0 mi WNW 6.9 mph - N/A   Overcast
7:53 AM 10.9 °F 1.4 °F 3.0 °F 70% 30.14 in 10.0 mi WNW 5.8 mph - N/A   Overcast
8:53 AM 12.0 °F 1.5 °F 3.0 °F 67% 30.15 in 10.0 mi WNW 6.9 mph - N/A   Overcast
9:53 AM 12.9 °F 3.8 °F 3.9 °F 67% 30.15 in 10.0 mi WNW 5.8 mph - N/A   Overcast
10:53 AM 15.1 °F 3.3 °F 5.0 °F 64% 30.12 in 10.0 mi NW 9.2 mph - N/A   Overcast
11:21 AM 12.2 °F 2.9 °F 3.2 °F 67% 30.07 in 10.0 mi Variable 5.8 mph - N/A   Partly Cloudy
11:45 AM 15.8 °F 5.1 °F 5.0 °F 62% 30.06 in 10.0 mi NW 8.1 mph - N/A   Mostly Cloudy
11:53 AM 16.0 °F 7.4 °F 5.0 °F 62% 30.11 in 10.0 mi Variable 5.8 mph - N/A   Overcast
12:50 PM 15.8 °F 7.2 °F 5.0 °F 62% 30.07 in 10.0 mi West 5.8 mph - N/A   Scattered Clouds
12:53 PM 15.1 °F 5.2 °F 3.9 °F 61% 30.12 in 10.0 mi Variable 6.9 mph - N/A   Mostly Cloudy
1:53 PM 18.0 °F 6.1 °F 6.1 °F 60% 30.10 in 10.0 mi West 10.4 mph 16.1 mph N/A   Overcast
2:19 PM 15.8 °F 2.7 °F 3.2 °F 58% 30.07 in 10.0 mi West 11.5 mph - N/A   Scattered Clouds
2:31 PM 15.8 °F 3.4 °F 3.2 °F 58% 30.06 in 10.0 mi WSW 10.4 mph - N/A   Mostly Cloudy
2:44 PM 15.8 °F 1.4 °F 3.2 °F 58% 30.07 in 10.0 mi WNW 13.8 mph 18.4 mph N/A   Scattered Clouds
2:53 PM 15.1 °F 2.5 °F 3.0 °F 59% 30.12 in 10.0 mi West 10.4 mph - N/A   Partly Cloudy
3:12 PM 15.8 °F 5.1 °F 3.2 °F 58% 30.09 in 10.0 mi West 8.1 mph 19.6 mph N/A   Mostly Cloudy
3:53 PM 15.1 °F 1.8 °F 3.0 °F 59% 30.15 in 10.0 mi West 11.5 mph - N/A   Overcast
4:53 PM 15.1 °F 4.2 °F 3.9 °F 61% 30.17 in 10.0 mi WNW 8.1 mph - N/A   Overcast
5:53 PM 14.0 °F 3.9 °F 3.9 °F 64% 30.21 in 10.0 mi West 6.9 mph - N/A   Overcast
6:53 PM 14.0 °F 2.9 °F 3.9 °F 64% 30.22 in 10.0 mi West 8.1 mph - N/A   Overcast
7:11 PM 14.0 °F 2.9 °F 3.2 °F 62% 30.18 in 10.0 mi West 8.1 mph - N/A   Overcast
7:53 PM 14.0 °F 2.9 °F 3.9 °F 64% 30.24 in 10.0 mi West 8.1 mph - N/A   Overcast
8:53 PM 12.9 °F 0.7 °F 3.9 °F 67% 30.26 in 10.0 mi West 9.2 mph - N/A   Overcast
9:53 PM 12.9 °F 0.7 °F 3.9 °F 67% 30.28 in 10.0 mi West 9.2 mph - N/A   Overcast
10:41 PM 12.2 °F 0.7 °F 3.2 °F 67% 30.25 in 10.0 mi West 8.1 mph - N/A   Scattered Clouds
10:53 PM 12.0 °F 2.7 °F 3.0 °F 67% 30.30 in 10.0 mi West 5.8 mph - N/A   Partly Cloudy